sat.trackr.live / text

‹ back to catalog

KUIPER-00504

NORAD 68885 · 2026-095X

PAYLOAD ACTIVE UNKNOWN

§ Identity

Operator
Country
US
Launch date
2026-04-28
Launch site
AFETR
Launch vehicle
Mass (kg)
RCS (m²)

External: N2YO · Heavens-Above · Gunter

§ Orbital elements

Epoch: 2026-05-25T04:00:03.998880Z

Period
96.21 min
Inclination
51.9166°
Eccentricity
0.0012196
Mean motion
14.96794238 rev/d
Perigee alt
568.3 km
Apogee alt
585.3 km
Semi-major
6,954.9 km
B*
-1.0875e-1
RAAN
357.6266°
Arg perigee
241.7376°
Mean anomaly
182.1279°
Rev number
455

§ Raw data

KUIPER-005041 68885U 26095X   26145.16671295 -.01171972  00000+0 -10875+0 0  99912 68885  51.9166 357.6266 0012196 241.7376 182.1279 14.96794238  4556

JSON: /api/v1/satellites/68885 · /tle

For live sub-satellite position, see the globe view (requires WebGL).

§ Visibility from observer

Set your observer location to see the next 7 days of passes ≥ 10°. The values pass through the URL so the page stays shareable.

No JS? Fill the form by hand. The geolocation button needs JavaScript.